Flag for Switzerland Weather past 2 weeks in Zug, Zug, Switzerland

Now
59 °F

Cool.


Feels Like: 60 °F
Forecast: 43 / 70 °F
Wind: 3 mph from East

Location: Zurich Town / Ville.

Current Time: Aug 20, 2014 at 11:39:06 AM

Latest Report: Aug 20, 2014 at 11:00 AM


Visibility: N/A

Pressure: 30.01 "Hg

Humidity: 72%

Dew point: 50 °F

Location of ZugLocation

Historic Weather in Zug — Graph

°F

Zug temperature yesterday

Maximum temperature yesterday: 67 °F (at 4:00 PM)
Minimum temperature yesterday: 54 °F (at 5:00 AM)
Average temperature yesterday: 60 °F

Past Weeks' High & Low Weather Summary

 TemperatureHumidityPressure
High80 °F (Aug 8, 4:00 PM)98% (Aug 10, 9:00 AM)30.22 "Hg (Aug 10, 9:00 AM)
Low49 °F (Aug 17, 7:00 AM)41% (Aug 5, 4:00 PM)29.68 "Hg (Aug 13, 10:00 AM)
Average62 °F76%29.97 "Hg
* Reported Aug 5 10:00 AM — Aug 20 10:00 AM, Zug, Weather by CustomWeather, © 2014

Note: Actual official high and low records may vary slightly from our data, if they occured in-between our weather recording intervals... More about our weather records

Advertising

Zug weather history for previous 24 hours

 ConditionsComfort  
Time TempWeatherWind HumidityBarometerVisibility
10:00 AM
Aug 20
57 °FCool.5 mph71%30.03 "HgN/A
9:00 AM56 °FCool.3 mph71%30.02 "HgN/A
8:00 AM55 °FPassing clouds.7 mph75%30.02 "HgN/A
7:00 AM54 °FCool.5 mph80%30.03 "HgN/A
6:00 AM54 °FCool.3 mph81%30.03 "HgN/A
5:00 AM56 °FCool.No wind74%30.02 "HgN/A
4:00 AM57 °FCool.2 mph69%30.01 "HgN/A
3:00 AM58 °FCool.2 mph72%30.01 "HgN/A
2:00 AM58 °FCool.No wind75%30.01 "HgN/A
1:00 AM58 °FCool.No wind71%30.01 "HgN/A
12:00 AM59 °FCool.No wind68%30.01 "HgN/A
11:00 PM
Aug 19
60 °FCool.1 mph65%30.00 "HgN/A
10:00 PM60 °FRefreshingly cool.3 mph59%29.99 "HgN/A
9:00 PM62 °FRefreshingly cool.3 mph53%29.96 "HgN/A
8:00 PM63 °FMild.3 mph52%29.95 "HgN/A
7:00 PM64 °FMild.6 mph53%29.92 "HgN/A
6:00 PM64 °FMild.9 mph55%29.92 "HgN/A
5:00 PM66 °FMild.8 mph55%29.90 "HgN/A
4:00 PM67 °FMild.7 mph57%29.90 "HgN/A
3:00 PM65 °FMild.6 mph62%29.90 "HgN/A
2:00 PM64 °FOvercast.5 mph62%29.90 "HgN/A
1:00 PM62 °FCool.6 mph73%29.93 "HgN/A
12:00 PM62 °FCool.6 mph75%29.93 "HgN/A
11:00 AM59 °FCool.2 mph86%29.94 "HgN/A
Weather by CustomWeather, © 2014

See weather overviewHow to use our weather pages